BAW001 TBPB-KNIP

Flight info

Callsign BAW001
Flight time N/A
Altitude 34000
Route BEMUD DCT LEEOO DCT NELSR DCT COUKY DCT VENDS QUBEN23
Aircraft CONC/H-SDFHIRWX/S

Departure

Time 2026-05-04 04:06
Airport Grantley Adams International Airport (TBPB)

Arrival

Time N/A
Airport Jacksonville Naval Air Station (Towers Field) (KNIP)
Time Latitude Longitude Altitude Speed Heading
2026-05-04 03:48 13.07954 -59.48493 175 ft 0 kts
2026-05-04 03:57 13.07937 -59.48493 175 ft 3 kts
2026-05-04 03:57 13.07919 -59.48493 175 ft 3 kts
2026-05-04 03:57 13.07901 -59.48493 175 ft 3 kts
2026-05-04 03:58 13.07864 -59.48495 175 ft 3 kts 330°
2026-05-04 03:58 13.07849 -59.48485 175 ft 3 kts 280°
2026-05-04 03:58 13.07847 -59.48479 175 ft 0 kts 269°
2026-05-04 03:59 13.07844 -59.48485 175 ft 3 kts 258°
2026-05-04 04:00 13.07830 -59.48523 175 ft 8 kts 250°
2026-05-04 04:00 13.07813 -59.48588 175 ft 11 kts 256°
2026-05-04 04:00 13.07792 -59.48675 175 ft 14 kts 256°
2026-05-04 04:00 13.07744 -59.48774 176 ft 17 kts 240°
2026-05-04 04:01 13.07708 -59.48893 176 ft 18 kts 256°
2026-05-04 04:01 13.07676 -59.49026 177 ft 20 kts 256°
2026-05-04 04:01 13.07640 -59.49170 177 ft 22 kts 256°
2026-05-04 04:01 13.07601 -59.49329 178 ft 24 kts 256°
2026-05-04 04:02 13.07558 -59.49507 177 ft 26 kts 256°
2026-05-04 04:02 13.07517 -59.49675 178 ft 22 kts 256°
2026-05-04 04:02 13.07481 -59.49821 178 ft 20 kts 256°
2026-05-04 04:02 13.07449 -59.49949 179 ft 18 kts 256°
2026-05-04 04:03 13.07416 -59.50082 179 ft 20 kts 256°
2026-05-04 04:03 13.07383 -59.50219 179 ft 20 kts 256°
2026-05-04 04:03 13.07349 -59.50362 180 ft 21 kts 256°
2026-05-04 04:03 13.07312 -59.50510 180 ft 21 kts 256°
2026-05-04 04:04 13.07280 -59.50641 180 ft 17 kts 256°
2026-05-04 04:04 13.07249 -59.50721 180 ft 9 kts 228°
2026-05-04 04:04 13.07161 -59.50722 180 ft 19 kts 166°
2026-05-04 04:04 13.07114 -59.50641 180 ft 12 kts 83°
2026-05-04 04:05 13.07118 -59.50620 180 ft 0 kts 77°
2026-05-04 04:05 13.07127 -59.50582 180 ft 34 kts 76°
2026-05-04 04:05 13.07275 -59.49978 181 ft 140 kts 76°
2026-05-04 04:05 13.07583 -59.48678 357 ft 225 kts 78°
2026-05-04 04:06 13.07924 -59.47076 796 ft 231 kts 81°
2026-05-04 04:06 13.08257 -59.45505 1583 ft 219 kts 78°
2026-05-04 04:06 13.08588 -59.43971 2358 ft 223 kts 76°
2026-05-04 04:06 13.08904 -59.42236 2265 ft 261 kts 76°
2026-05-04 04:07 13.09788 -59.40644 1805 ft 260 kts 39°
2026-05-04 04:07 13.11418 -59.40011 2058 ft 258 kts 359°
2026-05-04 04:07 13.13099 -59.40592 2948 ft 264 kts 322°
2026-05-04 04:07 13.14188 -59.42124 3845 ft 276 kts 290°
2026-05-04 04:08 13.14755 -59.44030 4739 ft 281 kts 285°
2026-05-04 04:08 13.15239 -59.45977 5501 ft 283 kts 283°
2026-05-04 04:08 13.15710 -59.47984 6315 ft 292 kts 282°
2026-05-04 04:08 13.16174 -59.50012 7040 ft 292 kts 282°
2026-05-04 04:09 13.16635 -59.52067 7757 ft 297 kts 282°
2026-05-04 04:09 13.17101 -59.54146 8498 ft 301 kts 282°
2026-05-04 04:09 13.17415 -59.55543 9007 ft 305 kts 284°
2026-05-04 04:09 13.18485 -59.58270 9705 ft 318 kts 300°
2026-05-04 04:10 13.19619 -59.60186 10323 ft 310 kts 305°
2026-05-04 04:10 13.20861 -59.62006 11025 ft 314 kts 308°
2026-05-04 04:10 13.21730 -59.63199 11512 ft 315 kts 309°
2026-05-04 04:10 13.23067 -59.64987 12253 ft 316 kts 310°
2026-05-04 04:11 13.24954 -59.67308 13271 ft 321 kts 313°
2026-05-04 04:11 13.25968 -59.68462 13792 ft 321 kts 314°
2026-05-04 04:11 13.27475 -59.70133 14481 ft 325 kts 315°
2026-05-04 04:11 13.29030 -59.71838 15171 ft 327 kts 315°
2026-05-04 04:12 13.30588 -59.73548 15898 ft 329 kts 314°
2026-05-04 04:12 13.32168 -59.75297 16636 ft 339 kts 315°
2026-05-04 04:12 13.33773 -59.77083 17390 ft 349 kts 315°
2026-05-04 04:12 13.35455 -59.78946 18170 ft 359 kts 315°
2026-05-04 04:13 13.37175 -59.80864 18863 ft 368 kts 315°
2026-05-04 04:13 13.38915 -59.82794 19545 ft 376 kts 314°
2026-05-04 04:13 13.40713 -59.84787 20235 ft 384 kts 314°
2026-05-04 04:13 13.42547 -59.86828 20969 ft 391 kts 314°
2026-05-04 04:14 13.44421 -59.88910 21722 ft 398 kts 313°
2026-05-04 04:14 13.46319 -59.91017 22485 ft 405 kts 313°
2026-05-04 04:14 13.48226 -59.93138 23238 ft 411 kts 313°
2026-05-04 04:14 13.50196 -59.95329 23680 ft 426 kts 313°
2026-05-04 04:15 13.52258 -59.97614 23847 ft 445 kts 313°
2026-05-04 04:15 13.54420 -60.00011 23931 ft 465 kts 313°
2026-05-04 04:15 13.56639 -60.02477 23971 ft 482 kts 313°
2026-05-04 04:15 13.58957 -60.05061 23986 ft 496 kts 313°
2026-05-04 04:16 13.61291 -60.07674 23994 ft 495 kts 313°
2026-05-04 04:16 13.63599 -60.10272 24451 ft 488 kts 313°
2026-05-04 04:16 13.65891 -60.12836 24738 ft 495 kts 313°
2026-05-04 04:16 13.68277 -60.15461 24973 ft 503 kts 313°
2026-05-04 04:17 13.70675 -60.18120 25212 ft 510 kts 313°
2026-05-04 04:17 13.73097 -60.20822 25453 ft 515 kts 312°
2026-05-04 04:17 13.75507 -60.23521 25704 ft 519 kts 312°
2026-05-04 04:17 13.77962 -60.26271 25934 ft 523 kts 312°
2026-05-04 04:18 13.80441 -60.29039 26183 ft 526 kts 312°
2026-05-04 04:18 13.82924 -60.31816 26433 ft 528 kts 312°
2026-05-04 04:18 13.85430 -60.34620 26681 ft 531 kts 312°
2026-05-04 04:18 13.87946 -60.37408 26924 ft 532 kts 312°
2026-05-04 04:19 13.90421 -60.40187 27175 ft 533 kts 312°
2026-05-04 04:19 13.92945 -60.43007 27436 ft 534 kts 312°
2026-05-04 04:19 13.95465 -60.45832 27703 ft 535 kts 312°
2026-05-04 04:19 13.97979 -60.48660 27939 ft 536 kts 312°
2026-05-04 04:20 14.00518 -60.51485 28209 ft 537 kts 312°
2026-05-04 04:20 14.03052 -60.54319 28475 ft 538 kts 312°
2026-05-04 04:20 14.05561 -60.57132 28740 ft 539 kts 312°
2026-05-04 04:20 14.08114 -60.59981 29007 ft 540 kts 313°
2026-05-04 04:21 14.10653 -60.62833 29280 ft 541 kts 312°
2026-05-04 04:21 14.13203 -60.65693 29558 ft 541 kts 312°
2026-05-04 04:21 14.15752 -60.68555 29835 ft 541 kts 312°
2026-05-04 04:21 14.18301 -60.71426 30107 ft 542 kts 312°
2026-05-04 04:22 14.20857 -60.74285 30346 ft 543 kts 313°
2026-05-04 04:22 14.23383 -60.77123 30576 ft 544 kts 313°
2026-05-04 04:22 14.25954 -60.80008 30811 ft 545 kts 313°
2026-05-04 04:22 14.28518 -60.82887 31052 ft 546 kts 313°
2026-05-04 04:23 14.31089 -60.85783 31298 ft 546 kts 313°
2026-05-04 04:23 14.33661 -60.88675 31540 ft 547 kts 313°
2026-05-04 04:23 14.36233 -60.91571 31789 ft 547 kts 313°
2026-05-04 04:23 14.38781 -60.94441 32036 ft 548 kts 313°
2026-05-04 04:24 14.41377 -60.97360 32150 ft 552 kts 313°
2026-05-04 04:24 14.43980 -61.00287 32266 ft 555 kts 313°
2026-05-04 04:24 14.46605 -61.03244 32384 ft 557 kts 313°
2026-05-04 04:24 14.49191 -61.06163 32502 ft 559 kts 313°
2026-05-04 04:25 14.51815 -61.09127 32622 ft 560 kts 313°
2026-05-04 04:25 14.54456 -61.12107 32737 ft 560 kts 313°
2026-05-04 04:25 14.57092 -61.15082 32876 ft 561 kts 313°
2026-05-04 04:25 14.59727 -61.18056 32983 ft 561 kts 313°
2026-05-04 04:26 14.62330 -61.20995 33097 ft 561 kts 313°
2026-05-04 04:26 14.64967 -61.23974 33230 ft 561 kts 313°
2026-05-04 04:26 14.67602 -61.26951 33345 ft 561 kts 313°
2026-05-04 04:26 14.70236 -61.29929 33458 ft 560 kts 313°
2026-05-04 04:27 14.72867 -61.32905 33595 ft 560 kts 313°
2026-05-04 04:27 14.75473 -61.35854 33712 ft 560 kts 313°
2026-05-04 04:27 14.78103 -61.38829 33836 ft 560 kts 313°
2026-05-04 04:27 14.80736 -61.41812 33966 ft 559 kts 313°
2026-05-04 04:28 14.83361 -61.44786 34083 ft 559 kts 313°
2026-05-04 04:28 14.85984 -61.47759 34193 ft 559 kts 313°
2026-05-04 04:28 14.88571 -61.50690 34301 ft 558 kts 313°
2026-05-04 04:28 14.91189 -61.53660 34401 ft 558 kts 313°
2026-05-04 04:29 14.93807 -61.56631 34508 ft 557 kts 313°
2026-05-04 04:29 14.96415 -61.59592 34618 ft 557 kts 313°
2026-05-04 04:29 14.99030 -61.62560 34728 ft 556 kts 313°
2026-05-04 04:29 15.01606 -61.65485 34839 ft 556 kts 313°
2026-05-04 04:30 15.04216 -61.68453 34956 ft 556 kts 313°
2026-05-04 04:30 15.06818 -61.71411 35064 ft 555 kts 313°
2026-05-04 04:30 15.09419 -61.74368 35174 ft 555 kts 313°
2026-05-04 04:30 15.12020 -61.77327 35285 ft 554 kts 313°
2026-05-04 04:31 15.14587 -61.80253 35942 ft 538 kts 313°
2026-05-04 04:31 15.17043 -61.83062 36678 ft 531 kts 313°
2026-05-04 04:31 15.19543 -61.85898 37452 ft 535 kts 313°
2026-05-04 04:31 15.22060 -61.88753 38239 ft 538 kts 313°
2026-05-04 04:32 15.24593 -61.91640 39002 ft 539 kts 313°
2026-05-04 04:32 15.27114 -61.94518 39688 ft 537 kts 313°
2026-05-04 04:32 15.29591 -61.97347 40397 ft 533 kts 313°
2026-05-04 04:32 15.32072 -62.00180 41132 ft 528 kts 313°
2026-05-04 04:33 15.34533 -62.02989 41915 ft 522 kts 313°
2026-05-04 04:33 15.36969 -62.05769 42443 ft 523 kts 313°
2026-05-04 04:33 15.41825 -62.11318 42650 ft 517 kts 313°
2026-05-04 04:34 15.44227 -62.14067 42777 ft 512 kts 313°
2026-05-04 04:34 15.46617 -62.16801 42943 ft 510 kts 313°
2026-05-04 04:34 15.49004 -62.19531 43074 ft 508 kts 313°
2026-05-04 04:34 15.51384 -62.22255 43228 ft 508 kts 313°
2026-05-04 04:35 15.53727 -62.24939 43350 ft 506 kts 313°
2026-05-04 04:35 15.56091 -62.27646 43484 ft 504 kts 313°
2026-05-04 04:35 15.58444 -62.30342 43617 ft 503 kts 313°
2026-05-04 04:35 15.60792 -62.33034 43760 ft 502 kts 313°
2026-05-04 04:36 15.63135 -62.35721 43904 ft 501 kts 313°
2026-05-04 04:36 15.65473 -62.38403 44037 ft 500 kts 313°
2026-05-04 04:36 15.67809 -62.41084 44175 ft 499 kts 313°
2026-05-04 04:36 15.70144 -62.43763 44299 ft 504 kts 313°
2026-05-04 04:37 15.77219 -62.51893 44696 ft 509 kts 313°
2026-05-04 04:37 15.79606 -62.54637 44808 ft 510 kts 313°
2026-05-04 04:38 15.81996 -62.57385 44933 ft 511 kts 313°
2026-05-04 04:38 15.84380 -62.60129 45052 ft 512 kts 313°
2026-05-04 04:38 15.86716 -62.62819 45162 ft 502 kts 313°
2026-05-04 04:38 15.89062 -62.65520 45289 ft 503 kts 313°
2026-05-04 04:39 15.91420 -62.68234 45394 ft 504 kts 313°
2026-05-04 04:39 15.93779 -62.70953 45509 ft 505 kts 313°
2026-05-04 04:39 15.96112 -62.73647 45624 ft 509 kts 313°
2026-05-04 04:39 15.98507 -62.76405 45730 ft 516 kts 313°
2026-05-04 04:40 16.00943 -62.79212 45889 ft 529 kts 313°
2026-05-04 04:40 16.03423 -62.82073 46046 ft 548 kts 313°
2026-05-04 04:40 16.05902 -62.84935 46171 ft 566 kts 313°
2026-05-04 04:40 16.08588 -62.88040 46295 ft 585 kts 313°
2026-05-04 04:41 16.11328 -62.91207 46405 ft 605 kts 313°
2026-05-04 04:41 16.14198 -62.94526 46522 ft 625 kts 313°
2026-05-04 04:41 16.17162 -62.97954 46633 ft 646 kts 313°
2026-05-04 04:41 16.20217 -63.01489 46736 ft 667 kts 313°
2026-05-04 04:42 16.23340 -63.05105 46859 ft 688 kts 313°
2026-05-04 04:42 16.26591 -63.08871 46967 ft 707 kts 313°
2026-05-04 04:42 16.33192 -63.16524 47168 ft 714 kts 312°
2026-05-04 04:43 16.39835 -63.24234 47365 ft 716 kts 312°
2026-05-04 04:43 16.43163 -63.28099 47476 ft 719 kts 312°
2026-05-04 04:43 16.46514 -63.31995 47584 ft 719 kts 312°
2026-05-04 04:44 16.53183 -63.39752 47787 ft 724 kts 312°
2026-05-04 04:44 16.56561 -63.43684 47895 ft 727 kts 312°
2026-05-04 04:44 16.59943 -63.47623 48009 ft 732 kts 312°
2026-05-04 04:45 16.63343 -63.51586 48111 ft 730 kts 312°
2026-05-04 04:45 16.66743 -63.55551 48237 ft 735 kts 312°
2026-05-04 04:47 16.91064 -63.83981 49023 ft 784 kts 312°
2026-05-04 04:47 16.94728 -63.88275 49142 ft 796 kts 312°
2026-05-04 04:47 16.98406 -63.92587 49258 ft 808 kts 312°
2026-05-04 04:47 17.02179 -63.97014 49374 ft 821 kts 311°
2026-05-04 04:48 17.06009 -64.01510 49500 ft 835 kts 311°
2026-05-04 04:49 17.21975 -64.20288 49957 ft 897 kts 311°
2026-05-04 04:49 17.26172 -64.25232 49993 ft 915 kts 311°
2026-05-04 04:49 17.30445 -64.30270 50001 ft 933 kts 311°
2026-05-04 04:49 17.34741 -64.35340 50032 ft 950 kts 311°
2026-05-04 04:50 17.39187 -64.40589 50021 ft 967 kts 311°
2026-05-04 04:50 17.43706 -64.45930 49991 ft 983 kts 311°
2026-05-04 04:50 17.48283 -64.51344 50018 ft 999 kts 311°
2026-05-04 04:50 17.52855 -64.56756 49992 ft 1014 kts 311°
2026-05-04 04:51 17.57562 -64.62333 50021 ft 1028 kts 311°
2026-05-04 04:51 17.62330 -64.67987 50040 ft 1041 kts 311°
2026-05-04 04:51 17.71990 -64.79456 50033 ft 1044 kts 311°
2026-05-04 04:52 17.81582 -64.90865 50042 ft 1047 kts 311°
2026-05-04 04:52 17.91207 -65.02333 50025 ft 1050 kts 311°
2026-05-04 04:53 18.00869 -65.13866 50022 ft 1051 kts 311°
2026-05-04 04:53 18.10505 -65.25390 50048 ft 1053 kts 311°
2026-05-04 04:54 18.20186 -65.36987 50048 ft 1052 kts 311°
2026-05-04 04:54 18.29805 -65.48532 50063 ft 1054 kts 311°
2026-05-04 04:55 18.39498 -65.60185 50060 ft 1054 kts 311°
2026-05-04 04:55 18.49123 -65.71781 50056 ft 1056 kts 311°
2026-05-04 04:56 18.58823 -65.83486 50045 ft 1055 kts 311°
2026-05-04 04:56 18.68448 -65.95125 50031 ft 1057 kts 310°
2026-05-04 04:57 18.78125 -66.06847 50030 ft 1057 kts 310°
2026-05-04 04:57 18.87762 -66.18544 50041 ft 1057 kts 310°
2026-05-04 04:58 18.97346 -66.30198 50035 ft 1055 kts 310°
2026-05-04 04:58 19.05291 -66.39877 50036 ft 1038 kts 310°
2026-05-04 04:59 19.14822 -66.51508 50031 ft 1041 kts 310°
2026-05-04 04:59 19.24270 -66.63059 50052 ft 1045 kts 310°
2026-05-04 05:00 19.33797 -66.74730 50056 ft 1044 kts 310°
2026-05-04 05:01 19.48020 -66.92195 50054 ft 1047 kts 310°
2026-05-04 05:01 19.57551 -67.03928 50060 ft 1049 kts 310°
2026-05-04 05:02 19.67090 -67.15694 50059 ft 1050 kts 310°
2026-05-04 05:02 19.76584 -67.27427 50069 ft 1051 kts 310°
2026-05-04 05:03 19.86069 -67.39174 50069 ft 1052 kts 310°
2026-05-04 05:04 20.05109 -67.62823 50063 ft 1054 kts 310°
2026-05-04 05:04 20.14651 -67.74712 50060 ft 1054 kts 310°
2026-05-04 05:06 20.52643 -68.22292 50063 ft 1056 kts 309°
2026-05-04 05:07 20.62166 -68.34281 50054 ft 1056 kts 309°
2026-05-04 05:07 20.71667 -68.46267 50056 ft 1056 kts 309°
2026-05-04 05:09 21.14246 -69.00301 50058 ft 1056 kts 309°
2026-05-04 05:10 21.23664 -69.12325 50057 ft 1056 kts 309°
2026-05-04 05:10 21.33127 -69.24432 50058 ft 1057 kts 309°
2026-05-04 05:11 21.42533 -69.36493 50053 ft 1056 kts 309°
2026-05-04 05:11 21.51983 -69.48636 50059 ft 1057 kts 309°
2026-05-04 05:12 21.61356 -69.60708 50050 ft 1057 kts 308°
2026-05-04 05:12 21.70780 -69.72873 50050 ft 1057 kts 308°
2026-05-04 05:13 21.80187 -69.85043 50050 ft 1057 kts 308°
2026-05-04 05:13 21.89603 -69.97252 50047 ft 1061 kts 308°
2026-05-04 05:14 21.98958 -70.09410 50043 ft 1059 kts 308°
2026-05-04 05:14 22.08377 -70.21679 50050 ft 1060 kts 308°
2026-05-04 05:15 22.17777 -70.33951 50056 ft 1061 kts 308°
2026-05-04 05:15 22.27148 -70.46214 50052 ft 1063 kts 308°
2026-05-04 05:16 22.36527 -70.58516 50055 ft 1062 kts 308°
2026-05-04 05:16 22.45938 -70.70888 50056 ft 1063 kts 308°
2026-05-04 05:17 22.55334 -70.83272 50056 ft 1063 kts 308°
2026-05-04 05:17 22.64673 -70.95609 50055 ft 1063 kts 308°
2026-05-04 05:18 22.74063 -71.08041 50055 ft 1062 kts 308°
2026-05-04 05:18 22.83418 -71.20459 50058 ft 1063 kts 308°
2026-05-04 05:19 22.92719 -71.32834 50055 ft 1063 kts 308°
2026-05-04 05:19 23.02061 -71.45293 50058 ft 1062 kts 308°
2026-05-04 05:20 23.11332 -71.57686 50054 ft 1061 kts 307°
2026-05-04 05:20 23.20644 -71.70167 50058 ft 1062 kts 307°
2026-05-04 05:21 23.29958 -71.82680 50058 ft 1061 kts 307°
2026-05-04 05:21 23.39250 -71.95194 50057 ft 1060 kts 307°
2026-05-04 05:22 23.48456 -72.07623 50057 ft 1058 kts 307°
2026-05-04 05:22 23.57720 -72.20162 50058 ft 1059 kts 307°
2026-05-04 05:23 23.66888 -72.32601 50058 ft 1059 kts 307°
2026-05-04 05:23 23.76105 -72.45139 50058 ft 1058 kts 307°
2026-05-04 05:24 23.85326 -72.57712 50059 ft 1059 kts 307°
2026-05-04 05:24 23.94543 -72.70314 50053 ft 1058 kts 306°
2026-05-04 05:25 24.03674 -72.82828 50075 ft 1058 kts 306°
2026-05-04 05:25 24.12875 -72.95472 50062 ft 1057 kts 306°
2026-05-04 05:26 24.21970 -73.08000 50049 ft 1055 kts 306°
2026-05-04 05:26 24.31123 -73.20641 50047 ft 1056 kts 306°
2026-05-04 05:28 24.67507 -73.71220 50052 ft 1055 kts 306°
2026-05-04 05:29 24.76526 -73.83839 50072 ft 1054 kts 306°
2026-05-04 05:29 24.85594 -73.96560 50049 ft 1052 kts 306°
2026-05-04 05:31 25.21531 -74.47316 50046 ft 1047 kts 305°
2026-05-04 05:32 25.30491 -74.60052 50046 ft 1047 kts 305°
2026-05-04 05:33 25.43850 -74.79110 50047 ft 1048 kts 305°
2026-05-04 05:33 25.52787 -74.91902 50050 ft 1047 kts 305°
2026-05-04 05:34 25.61643 -75.04613 50041 ft 1046 kts 305°
2026-05-04 05:34 25.70514 -75.17381 50041 ft 1045 kts 304°
2026-05-04 05:35 25.79397 -75.30199 50038 ft 1044 kts 304°
2026-05-04 05:35 25.88197 -75.42935 50046 ft 1044 kts 304°
2026-05-04 05:36 25.97030 -75.55753 49926 ft 1043 kts 304°
2026-05-04 05:36 26.01436 -75.62160 49654 ft 1037 kts 304°
2026-05-04 05:36 26.05761 -75.68458 49221 ft 1028 kts 304°
2026-05-04 05:36 26.10094 -75.74774 48724 ft 1014 kts 304°
2026-05-04 05:37 26.14352 -75.80993 48246 ft 999 kts 304°
2026-05-04 05:37 26.18536 -75.87112 47797 ft 988 kts 304°
2026-05-04 05:37 26.22635 -75.93114 47316 ft 978 kts 303°
2026-05-04 05:38 26.30750 -76.05017 46351 ft 949 kts 303°
2026-05-04 05:38 26.34730 -76.10868 45866 ft 934 kts 303°
2026-05-04 05:38 26.38576 -76.16527 45407 ft 920 kts 303°
2026-05-04 05:38 26.42416 -76.22186 44923 ft 904 kts 303°
2026-05-04 05:39 26.46184 -76.27745 44398 ft 890 kts 303°
2026-05-04 05:39 26.53525 -76.38592 43273 ft 857 kts 303°
2026-05-04 05:39 26.57083 -76.43862 42716 ft 839 kts 303°
2026-05-04 05:40 26.63951 -76.54048 41661 ft 810 kts 303°
2026-05-04 05:40 26.67326 -76.59063 41136 ft 797 kts 302°
2026-05-04 05:40 26.70633 -76.63983 40632 ft 785 kts 302°
2026-05-04 05:41 26.73861 -76.68789 40148 ft 774 kts 302°
2026-05-04 05:41 26.77074 -76.73578 39667 ft 762 kts 302°
2026-05-04 05:41 26.80233 -76.78291 39196 ft 751 kts 302°
2026-05-04 05:41 26.83345 -76.82939 38741 ft 740 kts 302°
2026-05-04 05:42 26.86414 -76.87528 38252 ft 730 kts 302°
2026-05-04 05:42 26.89436 -76.92050 37708 ft 719 kts 302°
2026-05-04 05:42 26.92420 -76.96521 37180 ft 709 kts 302°
2026-05-04 05:42 26.95361 -77.00933 36669 ft 700 kts 302°
2026-05-04 05:43 26.98223 -77.05229 36186 ft 690 kts 302°
2026-05-04 05:43 27.01082 -77.09524 35710 ft 681 kts 302°
2026-05-04 05:43 27.03910 -77.13778 35224 ft 672 kts 302°
2026-05-04 05:45 27.22374 -77.41649 31787 ft 598 kts 302°
2026-05-04 05:45 27.24863 -77.45427 31304 ft 600 kts 302°
2026-05-04 05:47 27.40896 -77.69789 28033 ft 567 kts 301°
2026-05-04 05:47 27.43234 -77.73353 27517 ft 563 kts 301°
2026-05-04 05:47 27.46309 -77.78044 26843 ft 560 kts 301°
2026-05-04 05:48 27.47873 -77.80433 26506 ft 558 kts 301°
2026-05-04 05:48 27.50171 -77.83944 26039 ft 555 kts 301°
2026-05-04 05:48 27.52454 -77.87436 25553 ft 552 kts 302°
2026-05-04 05:48 27.54725 -77.90909 25117 ft 547 kts 301°
2026-05-04 05:49 27.56971 -77.94350 24650 ft 542 kts 301°
2026-05-04 05:49 27.59175 -77.97732 24227 ft 540 kts 301°
2026-05-04 05:49 27.61401 -78.01150 23780 ft 537 kts 301°
2026-05-04 05:49 27.63612 -78.04544 23280 ft 535 kts 301°
2026-05-04 05:51 27.78627 -78.27669 20315 ft 512 kts 302°
2026-05-04 05:51 27.80742 -78.30935 20259 ft 512 kts 302°
2026-05-04 05:52 27.82845 -78.34185 20200 ft 512 kts 302°
2026-05-04 05:52 27.84948 -78.37441 20162 ft 511 kts 302°
2026-05-04 05:52 27.87021 -78.40651 20125 ft 511 kts 302°
2026-05-04 05:52 27.89118 -78.43898 20102 ft 509 kts 302°
2026-05-04 05:53 27.91203 -78.47131 20071 ft 507 kts 302°
2026-05-04 05:54 28.05717 -78.69705 20064 ft 507 kts 301°
2026-05-04 05:55 28.07791 -78.72937 20062 ft 506 kts 301°
2026-05-04 05:55 28.09863 -78.76177 20062 ft 506 kts 301°
2026-05-04 05:55 28.11932 -78.79410 20052 ft 507 kts 301°
2026-05-04 05:55 28.14001 -78.82644 20058 ft 507 kts 301°
2026-05-04 05:56 28.16078 -78.85893 20070 ft 507 kts 301°
2026-05-04 05:56 28.18154 -78.89144 20063 ft 507 kts 301°
2026-05-04 05:56 28.20202 -78.92352 20055 ft 507 kts 301°
2026-05-04 05:56 28.22279 -78.95609 20093 ft 505 kts 301°
2026-05-04 05:57 28.24309 -78.98793 20065 ft 504 kts 301°
2026-05-04 05:57 28.26362 -79.02020 20065 ft 504 kts 301°
2026-05-04 05:57 28.28421 -79.05258 20067 ft 505 kts 301°
2026-05-04 05:57 28.30484 -79.08503 20096 ft 505 kts 301°
2026-05-04 05:58 28.32543 -79.11743 20068 ft 505 kts 301°
2026-05-04 05:58 28.34567 -79.14930 20058 ft 504 kts 301°
2026-05-04 05:58 28.36619 -79.18165 20049 ft 504 kts 301°
2026-05-04 05:58 28.38676 -79.21412 20043 ft 504 kts 301°
2026-05-04 05:59 28.40733 -79.24658 20044 ft 505 kts 301°
2026-05-04 05:59 28.42759 -79.27860 20041 ft 504 kts 301°
2026-05-04 05:59 28.44809 -79.31102 20042 ft 504 kts 301°
2026-05-04 05:59 28.46860 -79.34347 20042 ft 504 kts 301°
2026-05-04 06:00 28.48902 -79.37582 20046 ft 504 kts 301°
2026-05-04 06:00 28.50954 -79.40834 20045 ft 505 kts 301°
2026-05-04 06:00 28.52996 -79.44073 20048 ft 505 kts 301°
2026-05-04 06:00 28.55040 -79.47317 20069 ft 504 kts 301°
2026-05-04 06:01 28.57081 -79.50558 20063 ft 502 kts 301°
2026-05-04 06:01 28.59117 -79.53796 20061 ft 503 kts 301°